�������l�o���
Date,Time,MP-1(��Sv/h),MP-2(��Sv/h),MP-3(��Sv/h),MP-4(��Sv/h),MP-5(��Sv/h),MP-6(��Sv/h),MP-7(��Sv/h),MP-8(��Sv/h),����,����(m/s),���J
2016/09/24,00:00,1.108,1.834,1.325,2.022,1.384,0.596,1.046,0.971,�k�k��,2.3,�L
2016/09/24,00:10,1.107,1.833,1.326,2.022,1.385,0.595,1.047,0.972,�k�k��,2.6,�L
2016/09/24,00:20,1.108,1.833,1.327,2.018,1.382,0.595,1.044,0.971,�k�k��,2.9,�L
2016/09/24,00:30,1.104,1.830,1.322,2.022,1.380,0.595,1.043,0.970,�k�k��,4.1,�L
2016/09/24,00:40,1.104,1.817,1.320,2.016,1.378,0.597,1.045,0.970,�k�k��,4.4,�L
2016/09/24,00:50,1.097,1.816,1.320,2.014,1.376,0.594,1.041,0.968,�k�k��,5.3,�L
2016/09/24,01:00,1.098,1.813,1.316,2.012,1.377,0.595,1.044,0.967,�k�k��,5.0,�L
2016/09/24,01:10,1.096,1.815,1.318,2.013,1.377,0.594,1.043,0.967,�k�k��,4.5,�L
2016/09/24,01:20,1.097,1.814,1.316,2.009,1.376,0.594,1.042,0.967,�k��,6.0,�L
2016/09/24,01:30,1.095,1.813,1.314,2.011,1.375,0.595,1.043,0.967,�k�k��,6.7,�L
2016/09/24,01:40,1.092,1.809,1.315,2.006,1.372,0.594,1.042,0.968,�k��,4.7,�L
2016/09/24,01:50,1.092,1.800,1.312,2.001,1.366,0.595,1.041,0.966,�k�k��,5.2,�L
2016/09/24,02:00,1.091,1.799,1.309,1.995,1.362,0.593,1.037,0.965,�k�k��,3.3,�L
2016/09/24,02:10,1.087,1.796,1.308,1.994,1.354,0.594,1.038,0.966,�k�k��,3.8,�L
2016/09/24,02:20,1.086,1.794,1.305,1.991,1.354,0.593,1.038,0.962,�k��,2.5,�L
2016/09/24,02:30,1.087,1.799,1.308,1.988,1.354,0.594,1.038,0.963,�k�k��,5.2,�L
2016/09/24,02:40,1.087,1.800,1.309,1.990,1.357,0.592,1.038,0.964,�k,5.2,��
2016/09/24,02:50,1.089,1.801,1.312,1.991,1.358,0.592,1.038,0.964,�k,5.2,��
2016/09/24,03:00,1.087,1.803,1.308,1.992,1.359,0.592,1.037,0.963,�k�k��,6.0,��
2016/09/24,03:10,1.087,1.802,1.310,1.990,1.360,0.592,1.038,0.962,�k�k��,5.2,��
2016/09/24,03:20,1.087,1.804,1.310,1.995,1.361,0.591,1.037,0.963,�k�k��,5.3,��
2016/09/24,03:30,1.089,1.806,1.310,1.993,1.362,0.590,1.036,0.963,�k�k��,5.3,��
2016/09/24,03:40,1.090,1.806,1.311,1.995,1.363,0.588,1.038,0.966,�k�k��,4.7,��
2016/09/24,03:50,1.090,1.805,1.311,1.994,1.360,0.590,1.037,0.967,�k�k��,4.1,��
2016/09/24,04:00,1.092,1.805,1.311,1.995,1.361,0.589,1.037,0.963,�k�k��,3.6,��
2016/09/24,04:10,1.090,1.806,1.309,1.994,1.364,0.590,1.037,0.965,�k,4.2,��
2016/09/24,04:20,1.088,1.810,1.312,1.993,1.365,0.590,1.038,0.966,�k,4.4,��
2016/09/24,04:30,1.088,1.804,1.311,1.993,1.363,0.591,1.036,0.963,�k,4.2,��
2016/09/24,04:40,1.088,1.809,1.310,1.996,1.362,0.589,1.037,0.965,�k,3.5,��
2016/09/24,04:50,1.090,1.809,1.310,1.995,1.363,0.589,1.036,0.966,�k,3.3,��
2016/09/24,05:00,1.089,1.812,1.308,1.994,1.362,0.589,1.038,0.964,�k,3.8,��
2016/09/24,05:10,1.089,1.809,1.310,1.997,1.364,0.589,1.036,0.966,�k,3.8,��
2016/09/24,05:20,1.091,1.808,1.311,1.998,1.365,0.590,1.037,0.966,�k,3.4,��
2016/09/24,05:30,1.090,1.811,1.308,1.996,1.366,0.589,1.038,0.964,�k,3.8,��
2016/09/24,05:40,1.093,1.809,1.311,1.994,1.365,0.589,1.038,0.966,-,CALM,��
2016/09/24,05:50,1.090,1.808,1.313,1.999,1.365,0.589,1.037,0.967,�k,3.8,��
2016/09/24,06:00,1.090,1.812,1.311,1.996,1.366,0.588,1.036,0.966,�k,2.7,��
2016/09/24,06:10,1.091,1.814,1.312,1.997,1.368,0.588,1.035,0.967,�k,2.7,��
2016/09/24,06:20,1.089,1.813,1.313,1.995,1.367,0.589,1.037,0.965,�k,2.3,��
2016/09/24,06:30,1.093,1.812,1.312,1.998,1.368,0.589,1.037,0.967,�k�k��,1.3,��
2016/09/24,06:40,1.091,1.812,1.302,2.000,1.366,0.588,1.038,0.968,-,CALM,��
2016/09/24,06:50,1.091,1.814,1.303,1.998,1.367,0.588,1.039,0.968,�k�k��,1.2,��
2016/09/24,07:00,1.092,1.813,1.303,1.998,1.367,0.589,1.039,0.966,�k�k��,0.8,��
2016/09/24,07:10,1.092,1.812,1.304,1.999,1.367,0.589,1.038,0.966,�k��,1.5,��
2016/09/24,07:20,1.093,1.814,1.303,1.999,1.367,0.589,1.039,0.966,�k��,1.4,��
2016/09/24,07:30,1.092,1.815,1.306,1.999,1.371,0.587,1.037,0.965,�k��,0.8,��
2016/09/24,07:40,1.093,1.816,1.301,2.001,1.369,0.589,1.041,0.966,���k��,2.3,��
2016/09/24,07:50,1.095,1.815,1.303,1.999,1.372,0.590,1.039,0.965,���k��,2.2,��
2016/09/24,08:00,1.095,1.817,1.301,2.001,1.369,0.589,1.038,0.965,���k��,2.4,��
2016/09/24,08:10,1.097,1.815,1.305,2.004,1.373,0.589,1.040,0.966,�k��,0.8,��
2016/09/24,08:20,1.094,1.817,1.305,2.004,1.370,0.589,1.041,0.966,���k��,1.4,��
2016/09/24,08:30,1.094,1.819,1.303,2.004,1.371,0.589,1.041,0.967,�k��,1.9,��
2016/09/24,08:40,1.090,1.818,1.305,2.008,1.368,0.589,1.041,0.966,�k��,1.6,��
2016/09/24,08:50,1.095,1.819,1.303,2.002,1.370,0.589,1.040,0.966,�k��,2.8,��
2016/09/24,09:00,1.095,1.817,1.307,2.005,1.371,0.588,1.040,0.966,�k��,4.2,��
2016/09/24,09:10,1.094,1.818,1.307,2.009,1.373,0.589,1.043,0.967,�k��,3.8,��
2016/09/24,09:20,1.095,1.820,1.304,2.004,1.373,0.587,1.042,0.968,�k��,1.9,��
2016/09/24,09:30,1.096,1.819,1.308,2.007,1.373,0.588,1.043,0.966,�k�k��,2.8,��
2016/09/24,09:40,1.096,1.817,1.308,2.009,1.371,0.587,1.043,0.965,�k�k��,3.6,��
2016/09/24,09:50,1.095,1.814,1.307,2.009,1.375,0.588,1.044,0.966,�k�k��,4.2,��
2016/09/24,10:00,1.094,1.817,1.308,2.008,1.375,0.590,1.045,0.966,�k�k��,3.6,��
2016/09/24,10:10,1.094,1.822,1.318,2.009,1.378,0.589,1.046,0.967,�k�k��,3.1,��
2016/09/24,10:20,1.095,1.821,1.325,2.010,1.377,0.590,1.045,0.968,�k�k��,4.1,��
2016/09/24,10:30,1.097,1.824,1.325,2.011,1.377,0.588,1.045,0.968,�k,3.0,��
2016/09/24,10:40,1.099,1.821,1.318,2.011,1.378,0.591,1.044,0.966,�k,3.0,��
2016/09/24,10:50,1.099,1.824,1.326,2.011,1.377,0.590,1.047,0.967,�k,3.1,��
2016/09/24,11:00,1.099,1.827,1.326,2.012,1.377,0.590,1.047,0.967,�k,3.8,��
2016/09/24,11:10,1.099,1.826,1.326,2.012,1.380,0.591,1.045,0.967,�k,3.4,��
2016/09/24,11:20,1.096,1.828,1.327,2.015,1.379,0.588,1.046,0.967,�k,3.3,��
2016/09/24,11:30,1.099,1.825,1.326,2.011,1.380,0.589,1.047,0.966,�k�k��,2.9,��
2016/09/24,11:40,1.099,1.829,1.328,2.012,1.379,0.591,1.049,0.967,�k,3.2,��
2016/09/24,11:50,1.098,1.827,1.326,2.014,1.379,0.590,1.047,0.967,�k�k��,3.4,��
2016/09/24,12:00,1.097,1.828,1.330,2.014,1.383,0.588,1.047,0.968,�k�k��,4.2,��
2016/09/24,12:10,1.099,1.829,1.328,2.015,1.381,0.588,1.048,0.969,�k�k��,3.8,��
2016/09/24,12:20,1.097,1.832,1.328,2.014,1.381,0.590,1.049,0.967,�k,3.8,��
2016/09/24,12:30,1.096,1.829,1.327,2.017,1.384,0.591,1.047,0.969,�k�k��,3.8,��
2016/09/24,12:40,1.099,1.828,1.325,2.017,1.384,0.591,1.048,0.969,�k�k��,4.1,��
2016/09/24,12:50,1.097,1.831,1.327,2.016,1.380,0.590,1.048,0.968,�k�k��,3.2,��
2016/09/24,13:00,1.096,1.828,1.330,2.018,1.385,0.590,1.048,0.969,�k�k��,3.6,��
2016/09/24,13:10,1.099,1.829,1.327,2.015,1.384,0.589,1.046,0.967,�k,2.7,��
2016/09/24,13:20,1.098,1.830,1.329,2.018,1.384,0.591,1.048,0.968,�k�k��,2.7,��
2016/09/24,13:30,1.099,1.832,1.331,2.014,1.383,0.591,1.048,0.967,�k�k��,2.7,��
2016/09/24,13:40,1.099,1.833,1.330,2.015,1.383,0.590,1.050,0.969,�k�k��,2.7,��
2016/09/24,13:50,1.102,1.837,1.330,2.019,1.383,0.590,1.048,0.968,�k�k��,2.5,��
2016/09/24,14:00,1.102,1.833,1.330,2.016,1.385,0.590,1.050,0.968,�k�k��,2.3,��
2016/09/24,14:10,1.101,1.833,1.335,2.018,1.385,0.592,1.048,0.969,�k��,1.7,��
2016/09/24,14:20,1.102,1.834,1.329,2.020,1.386,0.591,1.047,0.969,�k��,1.6,��
2016/09/24,14:30,1.101,1.837,1.332,2.021,1.386,0.591,1.049,0.970,�k��,1.4,��
2016/09/24,14:40,1.103,1.834,1.331,2.022,1.384,0.590,1.049,0.968,�k��,1.5,��
2016/09/24,14:50,1.103,1.835,1.333,2.020,1.385,0.590,1.049,0.968,�k��,1.1,��
2016/09/24,15:00,1.102,1.834,1.333,2.021,1.387,0.590,1.048,0.971,�k��,0.9,��
2016/09/24,15:10,1.103,1.835,1.335,2.022,1.388,0.590,1.047,0.969,-,CALM,��
2016/09/24,15:20,1.103,1.838,1.335,2.022,1.388,0.591,1.050,0.969,���k��,0.6,��
2016/09/24,15:30,1.103,1.840,1.336,2.021,1.389,0.592,1.051,0.968,���쓌,0.9,��
2016/09/24,15:40,1.101,1.836,1.335,2.023,1.389,0.589,1.047,0.969,��,1.2,��
2016/09/24,15:50,1.104,1.840,1.335,2.022,1.387,0.590,1.050,0.970,�쓌,1.1,��
2016/09/24,16:00,1.103,1.836,1.334,2.023,1.390,0.592,1.050,0.971,�쓌,0.6,��
2016/09/24,16:10,1.105,1.838,1.335,2.023,1.391,0.591,1.049,0.971,-,CALM,��
2016/09/24,16:20,1.104,1.836,1.340,2.019,1.391,0.592,1.050,0.972,�k��,1.1,��
2016/09/24,16:30,1.104,1.839,1.336,2.024,1.390,0.590,1.049,0.971,���k��,1.1,��
2016/09/24,16:40,1.103,1.838,1.336,2.022,1.389,0.592,1.050,0.972,��,1.2,��
2016/09/24,16:50,1.106,1.838,1.337,2.022,1.390,0.593,1.050,0.972,���k��,1.1,��
2016/09/24,17:00,1.106,1.840,1.334,2.022,1.392,0.592,1.048,0.971,��,0.9,��
2016/09/24,17:10,1.104,1.843,1.337,2.025,1.389,0.592,1.048,0.971,���k��,1.1,��
2016/09/24,17:20,1.105,1.843,1.338,2.021,1.391,0.593,1.049,0.971,��,0.6,��
2016/09/24,17:30,1.107,1.843,1.338,2.024,1.392,0.592,1.048,0.973,���k��,1.0,��
2016/09/24,17:40,1.106,1.839,1.338,2.023,1.391,0.593,1.048,0.970,��,0.9,��
2016/09/24,17:50,1.104,1.840,1.338,2.022,1.391,0.592,1.047,0.972,��,1.1,�L
2016/09/24,18:00,1.103,1.822,1.328,2.006,1.365,0.588,1.045,0.973,��,4.1,�L
2016/09/24,18:10,1.059,1.756,1.285,1.935,1.307,0.576,1.032,0.967,���쓌,3.1,�L
2016/09/24,18:20,1.053,1.739,1.276,1.935,1.311,0.577,1.029,0.959,��,1.6,�L
2016/09/24,18:30,1.061,1.757,1.282,1.951,1.319,0.579,1.029,0.960,��,1.2,��
2016/09/24,18:40,1.068,1.769,1.286,1.957,1.329,0.581,1.030,0.960,�k��,1.4,��
2016/09/24,18:50,1.070,1.777,1.292,1.961,1.330,0.581,1.030,0.962,���k��,1.4,��
2016/09/24,19:00,1.071,1.783,1.294,1.966,1.332,0.581,1.033,0.961,��,2.4,��
2016/09/24,19:10,1.075,1.786,1.300,1.971,1.334,0.586,1.032,0.960,��,2.1,��
2016/09/24,19:20,1.078,1.788,1.301,1.972,1.338,0.583,1.033,0.961,��,0.9,��
2016/09/24,19:30,1.081,1.791,1.305,1.974,1.340,0.585,1.034,0.963,���k��,1.2,��
2016/09/24,19:40,1.081,1.793,1.304,1.976,1.341,0.585,1.033,0.963,���k��,1.4,��
2016/09/24,19:50,1.080,1.798,1.304,1.978,1.344,0.586,1.032,0.963,���k��,2.1,��
2016/09/24,20:00,1.085,1.798,1.306,1.981,1.341,0.586,1.036,0.962,���k��,1.8,��
2016/09/24,20:10,1.085,1.796,1.309,1.985,1.346,0.587,1.037,0.963,�k�k��,1.8,��
2016/09/24,20:20,1.087,1.802,1.306,1.983,1.343,0.586,1.034,0.963,�k�k��,1.9,��
2016/09/24,20:30,1.083,1.804,1.310,1.985,1.347,0.587,1.034,0.964,�k��,2.8,��
2016/09/24,20:40,1.088,1.804,1.312,1.987,1.348,0.587,1.037,0.965,�k��,5.0,��
2016/09/24,20:50,1.087,1.804,1.310,1.985,1.348,0.587,1.035,0.964,�k��,6.3,��
2016/09/24,21:00,1.087,1.803,1.309,1.987,1.350,0.588,1.035,0.965,���k��,4.7,�L
2016/09/24,21:10,1.086,1.802,1.310,1.988,1.349,0.587,1.032,0.961,���k��,3.8,�L
2016/09/24,21:20,1.087,1.802,1.310,1.988,1.350,0.587,1.026,0.955,���k��,2.3,�L
2016/09/24,21:30,1.088,1.800,1.312,1.989,1.348,0.585,1.023,0.955,���쐼,1.1,�L
2016/09/24,21:40,1.088,1.802,1.309,1.990,1.349,0.587,1.028,0.957,��쓌,2.5,��
2016/09/24,21:50,1.089,1.806,1.311,1.987,1.348,0.587,1.030,0.958,�쓌,2.1,��
2016/09/24,22:00,1.086,1.806,1.313,1.990,1.348,0.586,1.027,0.960,��,1.9,��
2016/09/24,22:10,1.086,1.804,1.310,1.991,1.347,0.586,1.029,0.957,��,1.5,��
2016/09/24,22:20,1.087,1.808,1.313,1.988,1.349,0.585,1.028,0.958,�쐼,1.7,��
2016/09/24,22:30,1.090,1.801,1.315,1.994,1.352,0.588,1.028,0.958,�쐼,1.6,��
2016/09/24,22:40,1.087,1.805,1.314,1.990,1.353,0.588,1.032,0.960,��쐼,1.4,��
2016/09/24,22:50,1.091,1.809,1.314,1.991,1.353,0.589,1.031,0.960,��쐼,2.2,��
2016/09/24,23:00,1.089,1.805,1.315,1.993,1.356,0.588,1.032,0.960,��,2.7,��
2016/09/24,23:10,1.090,1.806,1.315,1.994,1.354,0.589,1.031,0.963,��쐼,1.4,��
2016/09/24,23:20,1.093,1.809,1.313,1.998,1.354,0.587,1.033,0.962,���쐼,1.2,��
2016/09/24,23:30,1.091,1.808,1.316,1.992,1.357,0.589,1.033,0.963,�쐼,2.1,��
2016/09/24,23:40,1.090,1.811,1.314,1.994,1.355,0.587,1.034,0.962,�쐼,1.2,��
2016/09/24,23:50,1.091,1.811,1.316,1.994,1.356,0.589,1.035,0.963,��,1.6,��
